Nucla Hopkins Field Airport, CO

12:17 PM MDT on March 28, 2017 (GMT -0600)
Nucla Hopkins Field Airport

Weather History for KAIB - January, 2014

Change the Weather History Date:

Sunday, January 5, 2014

  Actual Average (KTEX) Record (KTEX)
Temperature  
Mean Temperature 18 °F -  
Max Temperature 28 °F 36 °F 55 °F (2003)
Min Temperature 8 °F 16 °F -11 °F (2004)
Degree Days  
Heating Degree Days 47    
Moisture  
Dew Point 4 °F    
Average Humidity 57    
Maximum Humidity 79    
Minimum Humidity 34    
Precipitation  
Precipitation 0.00 in - - ()
Sea Level Pressure  
Sea Level Pressure 30.26 in    
Wind  
Wind Speed 7 mph (ENE)    
Max Wind Speed 14 mph    
Max Gust Speed 18 mph    
Visibility 10 miles    
Events      
Averages and records for this station are not official NWS values.
T = Trace of Precipitation, MM = Missing Value Source: NWS Daily Summary

Daily Weather History Graph

Daily Weather History Graph

Search for Another Location

Airport or City:

Trip Planner

Search our weather history database for the weather conditions in past years. The results will help you decide how hot, cold, wet, or windy it might be!

Date:

Astronomy

Jan. 05, 2014 Rise Set
Actual Time 7:31 AM MST 5:08 PM MST
Civil Twilight 7:01 AM MST 5:37 PM MST
Nautical Twilight 6:29 AM MST 6:10 PM MST
Astronomical Twilight 5:57 AM MST 6:42 PM MST
Moon 10:19 AM MST (1/5) 10:34 PM MST (1/5)
Length of Visible Light 10h 35m
Length of Day
9h 37m
Waxing Crescent, 25% of the Moon is Illuminated
Jan 5
Waxing Crescent
Jan 7
First Quarter
Jan 15
Full
Jan 23
Last Quarter
Jan 30
New

Hourly Weather History & Observations

Time (MST) Temp. Windchill Dew Point Humidity Pressure Visibility Wind Dir Wind Speed Gust Speed Precip Events Conditions
12:15 AM 14.0 °F 1.2 °F 5.0 °F 67% 30.12 in 10.0 mi East 10.4 mph - N/A   Clear
12:35 AM 14.0 °F 2.0 °F 5.0 °F 67% 30.12 in 10.0 mi ESE 9.2 mph - N/A   Clear
12:55 AM 12.2 °F -0.2 °F 5.0 °F 73% 30.12 in 10.0 mi ESE 9.2 mph - N/A   Clear
1:15 AM 14.0 °F 0.5 °F 5.0 °F 67% 30.12 in 10.0 mi East 11.5 mph - N/A   Clear
1:35 AM 14.0 °F 2.0 °F 3.2 °F 62% 30.13 in 10.0 mi East 9.2 mph - N/A   Clear
1:55 AM 12.2 °F -1.0 °F 3.2 °F 67% 30.13 in 10.0 mi East 10.4 mph - N/A   Clear
2:15 AM 12.2 °F -1.0 °F 3.2 °F 67% 30.13 in 10.0 mi East 10.4 mph - N/A   Clear
2:35 AM 12.2 °F -1.0 °F 3.2 °F 67% 30.14 in 10.0 mi East 10.4 mph - N/A   Clear
2:55 AM 12.2 °F -0.2 °F 3.2 °F 67% 30.15 in 10.0 mi East 9.2 mph - N/A   Clear
3:15 AM 12.2 °F 0.7 °F 3.2 °F 67% 30.15 in 10.0 mi East 8.1 mph - N/A   Clear
3:35 AM 12.2 °F 0.7 °F 3.2 °F 67% 30.16 in 10.0 mi ESE 8.1 mph - N/A   Clear
3:55 AM 12.2 °F -0.2 °F 3.2 °F 67% 30.16 in 10.0 mi East 9.2 mph - N/A   Scattered Clouds
4:15 AM 12.2 °F 0.7 °F 3.2 °F 67% 30.16 in 10.0 mi East 8.1 mph - N/A   Scattered Clouds
4:35 AM 12.2 °F 2.9 °F 3.2 °F 67% 30.17 in 10.0 mi East 5.8 mph - N/A   Scattered Clouds
4:55 AM 12.2 °F -0.2 °F 3.2 °F 67% 30.18 in 10.0 mi East 9.2 mph - N/A   Scattered Clouds
5:15 AM 10.4 °F 4.0 °F 3.2 °F 73% 30.18 in 10.0 mi NNE 3.5 mph - N/A   Clear
5:35 AM 10.4 °F 2.2 °F 3.2 °F 73% 30.19 in 10.0 mi North 4.6 mph - N/A   Clear
5:55 AM 10.4 °F 4.0 °F 3.2 °F 73% 30.21 in 10.0 mi North 3.5 mph - N/A   Clear
6:15 AM 10.4 °F - 3.2 °F 73% 30.21 in 10.0 mi Calm Calm - N/A   Clear
6:35 AM 12.2 °F 6.1 °F 3.2 °F 67% 30.22 in 10.0 mi SE 3.5 mph - N/A   Clear
6:55 AM 8.6 °F 2.0 °F 1.4 °F 73% 30.23 in 10.0 mi SE 3.5 mph - N/A   Clear
7:15 AM 10.4 °F 4.0 °F 3.2 °F 73% 30.23 in 10.0 mi East 3.5 mph - N/A   Clear
7:35 AM 8.6 °F 0.1 °F 3.2 °F 79% 30.24 in 10.0 mi ESE 4.6 mph - N/A   Clear
7:55 AM 8.6 °F - 3.2 °F 79% 30.24 in 10.0 mi Calm Calm - N/A   Clear
8:15 AM 10.4 °F - 5.0 °F 79% 30.25 in 10.0 mi Calm Calm - N/A   Clear
8:35 AM 12.2 °F - 5.0 °F 73% 30.26 in 10.0 mi Calm Calm - N/A   Clear
8:55 AM 15.8 °F 10.2 °F 8.6 °F 73% 30.27 in 10.0 mi ESE 3.5 mph - N/A   Clear
9:15 AM 17.6 °F 12.3 °F 8.6 °F 68% 30.28 in 10.0 mi ESE 3.5 mph - N/A   Clear
9:35 AM 19.4 °F 12.8 °F 8.6 °F 63% 30.28 in 10.0 mi East 4.6 mph - N/A   Clear
9:55 AM 21.2 °F - 8.6 °F 58% 30.29 in 10.0 mi Calm Calm - N/A   Clear
10:15 AM 21.2 °F - 8.6 °F 58% 30.29 in 10.0 mi Calm Calm - N/A   Clear
10:35 AM 23.0 °F - 8.6 °F 54% 30.30 in 10.0 mi Calm Calm - N/A   Clear
10:55 AM 23.0 °F 18.4 °F 8.6 °F 54% 30.29 in 10.0 mi West 3.5 mph - N/A   Clear
11:15 AM 24.8 °F - 5.0 °F 43% 30.29 in 10.0 mi Calm Calm - N/A   Clear
11:35 AM 24.8 °F 17.9 °F 5.0 °F 43% 30.28 in 10.0 mi NW 5.8 mph - N/A   Clear
11:55 AM 26.6 °F 18.2 °F 5.0 °F 40% 30.27 in 10.0 mi WNW 8.1 mph - N/A   Clear
12:15 PM 26.6 °F 16.2 °F 5.0 °F 40% 30.27 in 10.0 mi NW 11.5 mph - N/A   Clear
12:35 PM 26.6 °F 16.8 °F 5.0 °F 40% 30.26 in 10.0 mi NNW 10.4 mph 18.4 mph N/A   Clear
12:55 PM 26.6 °F 17.5 °F 5.0 °F 40% 30.25 in 10.0 mi West 9.2 mph - N/A   Clear
1:15 PM 28.4 °F 17.5 °F 5.0 °F 37% 30.25 in 10.0 mi West 13.8 mph - N/A   Clear
1:35 PM 28.4 °F 19.7 °F 5.0 °F 37% 30.25 in 10.0 mi West 9.2 mph - N/A   Clear
1:55 PM 28.4 °F 20.4 °F 5.0 °F 37% 30.25 in 10.0 mi WNW 8.1 mph 16.1 mph N/A   Clear
2:15 PM 28.4 °F 19.1 °F 5.0 °F 37% 30.25 in 10.0 mi WNW 10.4 mph - N/A   Clear
2:35 PM 28.4 °F 20.4 °F 5.0 °F 37% 30.25 in 10.0 mi WNW 8.1 mph - N/A   Clear
2:55 PM 28.4 °F 19.1 °F 3.2 °F 34% 30.25 in 10.0 mi NW 10.4 mph 16.1 mph N/A   Clear
3:15 PM 28.4 °F 19.7 °F 3.2 °F 34% 30.25 in 10.0 mi NW 9.2 mph - N/A   Clear
3:35 PM 28.4 °F 22.2 °F 3.2 °F 34% 30.26 in 10.0 mi WNW 5.8 mph 9.2 mph N/A   Clear
3:55 PM 28.4 °F 18.5 °F 3.2 °F 34% 30.27 in 10.0 mi NW 11.5 mph - N/A   Clear
4:15 PM 28.4 °F 19.1 °F 3.2 °F 34% 30.28 in 10.0 mi WNW 10.4 mph - N/A   Clear
4:35 PM 26.6 °F 18.2 °F 3.2 °F 37% 30.28 in 10.0 mi NW 8.1 mph - N/A   Clear
4:55 PM 24.8 °F 17.9 °F 3.2 °F 40% 30.28 in 10.0 mi WNW 5.8 mph - N/A   Clear
5:15 PM 23.0 °F 15.8 °F 3.2 °F 43% 30.29 in 10.0 mi NW 5.8 mph - N/A   Clear
5:35 PM 23.0 °F 17.0 °F 3.2 °F 43% 30.31 in 10.0 mi NNW 4.6 mph - N/A   Clear
5:55 PM 23.0 °F 15.8 °F 3.2 °F 43% 30.32 in 10.0 mi NNW 5.8 mph - N/A   Clear
6:15 PM 21.2 °F 13.6 °F 3.2 °F 46% 30.33 in 10.0 mi NNW 5.8 mph - N/A   Clear
6:35 PM 21.2 °F 14.9 °F 3.2 °F 46% 30.33 in 10.0 mi NNW 4.6 mph - N/A   Clear
6:55 PM 21.2 °F 13.6 °F 5.0 °F 50% 30.34 in 10.0 mi NNW 5.8 mph - N/A   Clear
7:15 PM 21.2 °F 13.6 °F 5.0 °F 50% 30.34 in 10.0 mi NW 5.8 mph - N/A   Clear
7:35 PM 21.2 °F - 5.0 °F 50% 30.35 in 10.0 mi Calm Calm - N/A   Clear
7:55 PM 17.6 °F 5.7 °F 5.0 °F 58% 30.35 in 10.0 mi ENE 10.4 mph - N/A   Clear
8:15 PM 17.6 °F 5.0 °F 6.8 °F 63% 30.36 in 10.0 mi East 11.5 mph - N/A   Clear
8:35 PM 17.6 °F 5.0 °F 6.8 °F 63% 30.37 in 10.0 mi East 11.5 mph - N/A   Clear
8:55 PM 17.6 °F 5.0 °F 5.0 °F 58% 30.37 in 10.0 mi ESE 11.5 mph - N/A   Clear
9:15 PM 17.6 °F 8.2 °F 5.0 °F 58% 30.38 in 10.0 mi ESE 6.9 mph - N/A   Clear
9:35 PM 14.0 °F 2.9 °F 5.0 °F 67% 30.38 in 10.0 mi SE 8.1 mph - N/A   Clear
9:55 PM 14.0 °F 2.9 °F 5.0 °F 67% 30.39 in 10.0 mi ESE 8.1 mph - N/A   Clear
10:15 PM 14.0 °F 1.2 °F 3.2 °F 62% 30.40 in 10.0 mi East 10.4 mph - N/A   Clear
10:35 PM 15.8 °F 4.2 °F 3.2 °F 58% 30.40 in 10.0 mi East 9.2 mph - N/A   Clear
10:55 PM 14.0 °F 2.0 °F 3.2 °F 62% 30.39 in 10.0 mi East 9.2 mph - N/A   Clear
11:15 PM 12.2 °F 1.7 °F 3.2 °F 67% 30.39 in 10.0 mi ESE 6.9 mph - N/A   Clear
11:35 PM 14.0 °F 5.1 °F 3.2 °F 62% 30.39 in 10.0 mi ESE 5.8 mph - N/A   Clear
11:55 PM 14.0 °F 2.9 °F 1.4 °F 57% 30.38 in 10.0 mi East 8.1 mph - N/A   Clear